Regional Weather Roundup
Issued by NWS

Home | Current Version | Previous Version | Graphics & Text | Print | Product List | Glossary On
Versions: 1 2 3 4 5 6 7 8 9 10 11 12 13 14 15 16 17 18 19 20 21 22 23 24 25 26 27 28 29 30 31 32 33 34 35 36 37 38 39 40 41 42 43 44 45 46 47 48 49 50
000
ASUS43 KLSX 301507
RWRMO

WEATHER SUMMARY FOR MISSOURI
NATIONAL WEATHER SERVICE SPRINGFIELD MO
1000 AM CDT MON MAR 30 2015

NOTE: "FAIR" INDICATES FEW OR NO CLOUDS BELOW 12,000 FEET WITH NO
       SIGNIFICANT WEATHER AND/OR OBSTRUCTIONS TO VISIBILITY.
       CURRENT SKY AND/OR WEATHER CONDITIONS ARE NOT AVAILABLE FOR
       CHILLICOTHE AND FARMINGTON.

MOZ001>031-035>038-043-044-053-054-301600-
...NORTHERN AND WESTERN MISSOURI...

CITY           SKY/WX    TMP DP  RH WIND       PRES   REMARKS
KANSAS CTY INT MOSUNNY   56  36  47 SW10      30.16F
KANSAS C DTWN  SUNNY     56  36  47 S5        30.16F
LEE`S SUMMIT   SUNNY     57  34  41 SW10      30.18F
CHILLICOTHE      N/A     54  33  45 SW6       30.17F
KIRKSVILLE     SUNNY     55  29  36 SW12      30.17S

$$
MOZ066>068-077>081-088>096-101>105-301600-
...SOUTHWEST MISSOURI...

CITY           SKY/WX    TMP DP  RH WIND       PRES   REMARKS
SPRINGFIELD    SUNNY     55  39  54 SE3       30.22S
JOPLIN         SUNNY     57  37  47 E9        30.21F

$$
MOZ032>034-039>042-045>050-055>058-069>072-301600-
...CENTRAL MISSOURI...

CITY           SKY/WX    TMP DP  RH WIND       PRES   REMARKS
COLUMBIA       SUNNY     56  33  42 SW8       30.20R
JEFFERSON CITY SUNNY     52  39  61 CALM      30.21R
ROLLA          SUNNY     53  36  52 S6        30.19S
SEDALIA        SUNNY     56  38  50 SW6       30.20F
WHITEMAN AFB   MOSUNNY   56  36  46 SW7       30.19S
WARRENSBURG    SUNNY     54  36  50 S7        30.20S
OSAGE BEACH    MOSUNNY   52  37  58 W3        30.21S

$$
MOZ051-052-059>065-301600-
...EAST CENTRAL MISSOURI...

CITY           SKY/WX    TMP DP  RH WIND       PRES   REMARKS
ST LOUIS INTL  MOSUNNY   56  37  49 SW3       30.19S
SPIRIT OF STL  MOSUNNY   54  37  52 W5        30.20R
ST CHARLES     SUNNY     52  40  63 SW5       30.19R

$$
MOZ072>076-082>087-097>100-106>115-301600-
...SOUTH CENTRAL AND SOUTHEAST MISSOURI...

CITY           SKY/WX    TMP DP  RH WIND       PRES   REMARKS
CAPE GIRARDEAU PTSUNNY   53  43  68 CALM      30.23S
FARMINGTON     PTSUNNY   52  36  54 CALM      30.25F
POPLAR BLUFF   SUNNY     56  39  53 NE7       30.22S
WEST PLAINS    SUNNY     57  36  45 E5        30.23R

$$


USA.gov is the U.S. government's official web portal to all federal, state and local government web resources and services.